• In Belarus
  • List of Countries
  • For 7 days
  • Water Temperature
  • Satellite Maps
  • Weather Map
  • Weather Widgets
  • user-avatar
    Login

    Hourly Weather Santa Fe

    Today, 27 May, Sunday

    Time Temperature Precipitation Wind Pressure Humidity
    00:00 +17°C° 0 mm 2 mps 760 mmHg 94%
    01:00 +17°C° 0 mm 2 mps 760 mmHg 94%
    02:00 +16°C° 0 mm 2 mps 760 mmHg 95%
    03:00 +16°C° 0 mm 2 mps 760 mmHg 95%
    04:00 +16°C° 0 mm 2 mps 760 mmHg 96%
    05:00 +16°C° 0 mm 2 mps 760 mmHg 96%
    06:00 +17°C° 0 mm 2 mps 760 mmHg 95%
    07:00 +17°C° 0 mm 2 mps 760 mmHg 95%
    08:00 +18°C° 0 mm 2 mps 761 mmHg 94%
    09:00 +20°C° 0 mm 2 mps 761 mmHg 87%
    10:00 +23°C° 0 mm 2 mps 761 mmHg 80%
    11:00 +25°C° 0 mm 3 mps 761 mmHg 73%
    12:00 +25°C° 0 mm 3 mps 760 mmHg 73%
    13:00 +25°C° 0 mm 3 mps 760 mmHg 74%
    14:00 +25°C° 0 mm 3 mps 759 mmHg 75%
    15:00 +24°C° 0.1 mm 3 mps 759 mmHg 79%
    16:00 +22°C° 0.1 mm 3 mps 758 mmHg 83%
    17:00 +22°C° 0.1 mm 3 mps 758 mmHg 87%
    18:00 +21°C° 0 mm 3 mps 758 mmHg 87%
    19:00 +21°C° 0 mm 3 mps 758 mmHg 88%
    20:00 +21°C° 0 mm 3 mps 758 mmHg 88%
    21:00 +21°C° 0 mm 4 mps 758 mmHg 90%
    22:00 +21°C° 0 mm 4 mps 758 mmHg 91%
    23:00 +21°C° 0 mm 4 mps 758 mmHg 92%

    Tomorrow, 28 May, Monday

    Time Temperature Precipitation Wind Pressure Humidity
    00:00 +21°C° 0.1 mm 4 mps 758 mmHg 91%
    01:00 +21°C° 0.1 mm 5 mps 757 mmHg 90%
    02:00 +22°C° 0.1 mm 5 mps 757 mmHg 89%
    03:00 +21°C° 0.2 mm 5 mps 757 mmHg 89%
    04:00 +21°C° 0.2 mm 5 mps 757 mmHg 90%
    05:00 +21°C° 0.2 mm 4 mps 756 mmHg 91%
    06:00 +22°C° 0 mm 5 mps 757 mmHg 88%
    07:00 +22°C° 0 mm 6 mps 757 mmHg 85%
    08:00 +22°C° 0 mm 6 mps 757 mmHg 82%
    09:00 +23°C° 0 mm 6 mps 757 mmHg 77%
    10:00 +24°C° 0 mm 6 mps 757 mmHg 73%
    11:00 +26°C° 0 mm 7 mps 757 mmHg 68%
    12:00 +26°C° 0 mm 6 mps 757 mmHg 67%
    13:00 +26°C° 0 mm 6 mps 756 mmHg 65%
    14:00 +26°C° 0 mm 6 mps 756 mmHg 64%
    15:00 +26°C° 0 mm 5 mps 756 mmHg 66%
    16:00 +25°C° 0 mm 4 mps 756 mmHg 68%
    17:00 +25°C° 0 mm 4 mps 756 mmHg 70%
    18:00 +25°C° 0 mm 4 mps 756 mmHg 70%
    19:00 +23°C° 0 mm 4 mps 756 mmHg 70%
    20:00 +23°C° 0 mm 5 mps 756 mmHg 71%
    21:00 +23°C° 0 mm 5 mps 756 mmHg 68%
    22:00 +23°C° 0 mm 5 mps 756 mmHg 66%
    23:00 +23°C° 0 mm 6 mps 756 mmHg 64%

    Day after tomorrow, 29 May, Tuesday

    Time Temperature Precipitation Wind Pressure Humidity
    00:00 +22°C° 0 mm 6 mps 756 mmHg 64%
    01:00 +22°C° 0 mm 6 mps 756 mmHg 64%
    02:00 +22°C° 0 mm 6 mps 756 mmHg 64%
    03:00 +22°C° 0 mm 6 mps 755 mmHg 64%
    04:00 +21°C° 0 mm 5 mps 755 mmHg 64%
    05:00 +21°C° 0 mm 5 mps 755 mmHg 65%
    06:00 +21°C° 0 mm 5 mps 755 mmHg 66%
    07:00 +21°C° 0 mm 5 mps 755 mmHg 68%
    08:00 +21°C° 0 mm 5 mps 756 mmHg 69%
    09:00 +22°C° 0 mm 6 mps 756 mmHg 67%
    10:00 +23°C° 0 mm 6 mps 756 mmHg 65%
    11:00 +24°C° 0 mm 7 mps 756 mmHg 63%
    12:00 +26°C° 0 mm 6 mps 755 mmHg 63%
    13:00 +26°C° 0 mm 5 mps 755 mmHg 64%
    14:00 +26°C° 0 mm 4 mps 754 mmHg 64%
    15:00 +26°C° 0 mm 4 mps 754 mmHg 67%
    16:00 +25°C° 0 mm 3 mps 754 mmHg 70%
    17:00 +25°C° 0 mm 2 mps 755 mmHg 73%
    18:00 +25°C° 0 mm 2 mps 755 mmHg 74%
    19:00 +24°C° 0 mm 2 mps 756 mmHg 76%
    20:00 +24°C° 0 mm 2 mps 756 mmHg 77%
    21:00 +23°C° 0.5 mm 2 mps 757 mmHg 79%
    22:00 +23°C° 0.5 mm 2 mps 758 mmHg 80%
    23:00 +23°C° 0.5 mm 2 mps 759 mmHg 82%

    30 May, Wednesday

    Time Temperature Precipitation Wind Pressure Humidity
    00:00 +20°C° 1.2 mm 4 mps 759 mmHg 84%
    01:00 +17°C° 1.2 mm 6 mps 760 mmHg 85%
    02:00 +15°C° 1.2 mm 7 mps 760 mmHg 87%
    03:00 +14°C° 1.8 mm 7 mps 761 mmHg 86%
    04:00 +14°C° 1.8 mm 6 mps 761 mmHg 85%
    05:00 +13°C° 1.8 mm 6 mps 761 mmHg 84%
    06:00 +13°C° 0.2 mm 6 mps 762 mmHg 82%
    07:00 +13°C° 0.2 mm 5 mps 763 mmHg 81%
    08:00 +13°C° 0.2 mm 5 mps 763 mmHg 79%
    09:00 +13°C° 0.3 mm 5 mps 764 mmHg 79%
    10:00 +13°C° 0.3 mm 5 mps 764 mmHg 79%
    11:00 +13°C° 0.3 mm 4 mps 764 mmHg 78%
    12:00 +13°C° 0.1 mm 4 mps 764 mmHg 77%
    13:00 +14°C° 0.1 mm 4 mps 764 mmHg 77%
    14:00 +14°C° 0.1 mm 4 mps 763 mmHg 76%
    15:00 +13°C° 0.1 mm 4 mps 764 mmHg 77%
    16:00 +13°C° 0.1 mm 4 mps 764 mmHg 78%
    17:00 +13°C° 0.1 mm 4 mps 764 mmHg 80%
    18:00 +13°C° 0 mm 4 mps 764 mmHg 81%
    19:00 +12°C° 0 mm 4 mps 765 mmHg 81%
    20:00 +12°C° 0 mm 4 mps 765 mmHg 82%
    21:00 +12°C° 0 mm 4 mps 765 mmHg 82%
    22:00 +12°C° 0 mm 3 mps 765 mmHg 81%
    23:00 +12°C° 0 mm 3 mps 766 mmHg 81%

    31 May, Thursday

    Time Temperature Precipitation Wind Pressure Humidity
    00:00 +12°C° 0 mm 3 mps 766 mmHg 81%
    01:00 +11°C° 0 mm 3 mps 765 mmHg 81%
    02:00 +11°C° 0 mm 4 mps 765 mmHg 81%
    03:00 +11°C° 0 mm 4 mps 765 mmHg 80%
    04:00 +11°C° 0 mm 4 mps 765 mmHg 80%
    05:00 +10°C° 0 mm 4 mps 766 mmHg 79%
    06:00 +10°C° 0 mm 4 mps 766 mmHg 78%
    07:00 +10°C° 0 mm 4 mps 766 mmHg 76%
    08:00 +10°C° 0 mm 4 mps 767 mmHg 75%
    09:00 +11°C° 0 mm 4 mps 767 mmHg 73%
    10:00 +12°C° 0 mm 4 mps 767 mmHg 71%
    11:00 +13°C° 0 mm 5 mps 767 mmHg 70%
    12:00 +14°C° 0 mm 5 mps 767 mmHg 68%
    13:00 +14°C° 0 mm 4 mps 767 mmHg 65%
    14:00 +15°C° 0 mm 4 mps 766 mmHg 63%
    15:00 +14°C° 0 mm 4 mps 766 mmHg 65%
    16:00 +14°C° 0 mm 4 mps 766 mmHg 66%
    17:00 +13°C° 0 mm 3 mps 766 mmHg 68%
    18:00 +12°C° 0 mm 4 mps 767 mmHg 67%
    19:00 +12°C° 0 mm 4 mps 767 mmHg 66%
    20:00 +11°C° 0 mm 4 mps 768 mmHg 65%
    21:00 +11°C° 0 mm 4 mps 768 mmHg 67%
    22:00 +10°C° 0 mm 4 mps 768 mmHg 70%
    23:00 +10°C° 0 mm 4 mps 768 mmHg 72%

    1 June, Friday

    Time Temperature Precipitation Wind Pressure Humidity
    00:00 +8°C° 0 mm 4 mps 768 mmHg 74%
    01:00 +9°C° 0 mm 3 mps 768 mmHg 76%
    02:00 +8°C° 0 mm 3 mps 768 mmHg 78%
    03:00 +8°C° 0 mm 3 mps 768 mmHg 79%
    04:00 +7°C° 0 mm 3 mps 768 mmHg 80%
    05:00 +7°C° 0 mm 3 mps 768 mmHg 82%
    06:00 +7°C° 0 mm 3 mps 768 mmHg 81%
    07:00 +7°C° 0 mm 3 mps 769 mmHg 81%
    08:00 +7°C° 0 mm 3 mps 769 mmHg 80%
    09:00 +9°C° 0 mm 3 mps 769 mmHg 74%
    10:00 +11°C° 0 mm 3 mps 769 mmHg 69%
    11:00 +13°C° 0 mm 3 mps 769 mmHg 63%
    12:00 +13°C° 0 mm 3 mps 769 mmHg 60%
    13:00 +13°C° 0 mm 3 mps 768 mmHg 57%
    14:00 +14°C° 0 mm 3 mps 767 mmHg 54%
    15:00 +12°C° 0 mm 3 mps 767 mmHg 58%
    16:00 +11°C° 0 mm 3 mps 767 mmHg 62%
    17:00 +10°C° 0 mm 2 mps 767 mmHg 66%
    18:00 +9°C° 0 mm 2 mps 768 mmHg 69%
    19:00 +8°C° 0 mm 2 mps 768 mmHg 71%
    20:00 +8°C° 0 mm 2 mps 768 mmHg 74%
    21:00 +7°C° 0 mm 2 mps 768 mmHg 76%
    22:00 +7°C° 0 mm 2 mps 768 mmHg 77%
    23:00 +6°C° 0 mm 2 mps 769 mmHg 79%
    Show more